TimeCST,TemperatureF,Dew PointF,Humidity,Sea Level PressureIn,VisibilityMPH,Wind Direction,Wind SpeedMPH,Gust SpeedMPH,PrecipitationIn,Events,Conditions,WindDirDegrees,DateUTC
12:14 AM,64.4,62.6,94,30.08,1.8,Calm,Calm,-,N/A,,Clear,0,2012-11-04 05:14:00
12:22 AM,62.6,62.6,100,30.08,0.5,Calm,Calm,-,N/A,Fog,Fog,0,2012-11-04 05:22:00
12:51 AM,62.6,62.6,100,30.08,1.2,Calm,Calm,-,N/A,,Partly Cloudy,0,2012-11-04 05:51:00
12:56 AM,62.1,61.0,96,30.04,1.2,Calm,Calm,-,N/A,,Partly Cloudy,0,2012-11-04 05:56:00
1:00 AM,60.8,60.8,100,30.08,0.8,Calm,Calm,-,N/A,,Mist,0,2012-11-04 06:00:00
1:49 AM,62.6,60.8,94,30.08,1.2,Calm,Calm,-,N/A,,Partly Cloudy,0,2012-11-04 06:49:00
1:56 AM,63.0,61.0,93,30.03,1.2,Calm,Calm,-,N/A,,Partly Cloudy,0,2012-11-04 06:56:00
1:59 AM,62.6,60.8,94,30.07,0.8,Calm,Calm,-,N/A,,Mist,0,2012-11-04 06:59:00
1:11 AM,62.6,60.8,94,30.08,0.8,Calm,Calm,-,N/A,,Clear,0,2012-11-04 07:11:00
1:20 AM,60.8,60.8,100,30.07,0.5,SSW,3.5,-,N/A,Fog,Fog,200,2012-11-04 07:20:00
1:56 AM,62.1,60.1,93,30.04,0.8,Calm,Calm,-,N/A,,Mist,0,2012-11-04 07:56:00
2:56 AM,59.0,57.9,96,30.03,0.2,Calm,Calm,-,N/A,Fog,Fog,0,2012-11-04 08:56:00
3:56 AM,59.0,57.0,93,30.02,0.2,Calm,Calm,-,0.01,Fog,Fog,0,2012-11-04 09:56:00
4:56 AM,60.1,59.0,96,30.03,0.5,Calm,Calm,-,N/A,Fog,Fog,0,2012-11-04 10:56:00
5:56 AM,60.1,57.9,93,30.04,0.5,WNW,3.5,-,N/A,Fog,Fog,300,2012-11-04 11:56:00
6:56 AM,60.1,59.0,96,30.06,0.2,WNW,3.5,-,N/A,Fog,Fog,300,2012-11-04 12:56:00
7:38 AM,62.6,60.8,94,30.10,1.5,NW,3.5,-,N/A,,Mostly Cloudy,310,2012-11-04 13:38:00
7:42 AM,62.6,60.8,94,30.10,3.0,NW,4.6,-,N/A,,Mostly Cloudy,310,2012-11-04 13:42:00
7:51 AM,62.6,62.6,100,30.10,8.0,NW,5.8,-,N/A,,Scattered Clouds,310,2012-11-04 13:51:00
7:56 AM,64.0,62.1,93,30.06,9.0,NW,4.6,-,N/A,,Partly Cloudy,310,2012-11-04 13:56:00
8:56 AM,70.0,64.0,81,30.06,10.0,NW,8.1,-,N/A,,Partly Cloudy,310,2012-11-04 14:56:00
9:56 AM,75.0,63.0,66,30.05,10.0,NNW,10.4,-,N/A,,Clear,340,2012-11-04 15:56:00
10:56 AM,77.0,62.1,60,30.04,10.0,NNW,8.1,17.3,N/A,,Clear,340,2012-11-04 16:56:00
11:56 AM,81.0,59.0,47,30.01,10.0,NNW,10.4,-,N/A,,Clear,330,2012-11-04 17:56:00
12:56 PM,78.1,57.9,50,29.99,10.0,WNW,3.5,-,N/A,,Clear,290,2012-11-04 18:56:00
1:56 PM,78.1,57.9,50,29.98,10.0,Variable,3.5,-,N/A,,Clear,0,2012-11-04 19:56:00
2:56 PM,77.0,57.9,52,29.97,10.0,WNW,3.5,-,N/A,,Partly Cloudy,300,2012-11-04 20:56:00
3:56 PM,73.9,55.9,53,29.97,10.0,NW,5.8,-,N/A,,Clear,310,2012-11-04 21:56:00
4:56 PM,72.0,55.9,57,29.99,10.0,NW,11.5,19.6,N/A,,Clear,320,2012-11-04 22:56:00
5:56 PM,68.0,53.1,59,29.99,10.0,NW,6.9,-,N/A,,Clear,320,2012-11-04 23:56:00
6:56 PM,64.0,54.0,70,30.00,10.0,NNW,5.8,-,N/A,,Clear,330,2012-11-05 00:56:00
7:56 PM,63.0,55.0,75,30.01,10.0,NNW,6.9,-,N/A,,Clear,330,2012-11-05 01:56:00
8:56 PM,62.1,55.9,80,30.01,10.0,NNW,6.9,-,N/A,,Clear,330,2012-11-05 02:56:00
9:56 PM,60.1,55.9,86,30.02,10.0,NNW,6.9,-,N/A,,Clear,340,2012-11-05 03:56:00
10:56 PM,57.9,55.0,90,30.02,10.0,NNW,4.6,-,N/A,,Clear,330,2012-11-05 04:56:00